• In Hungary
  • List of Countries
  • For 7 days
  • Water Temperature
  • Satellite Maps
  • Weather Map
  • News
  • Weather Widgets
  • user-avatar
    Login

    Hourly Weather Semorzha

    Today, 28 May, Monday

    Time Temperature Precipitation Wind Pressure Humidity
    00:00 +14°C° 0 mm 1 mps 750 mmHg 78%
    01:00 +13°C° 0 mm 2 mps 750 mmHg 78%
    02:00 +13°C° 0 mm 2 mps 751 mmHg 79%
    03:00 +13°C° 0 mm 2 mps 751 mmHg 80%
    04:00 +13°C° 0 mm 2 mps 751 mmHg 82%
    05:00 +13°C° 0 mm 2 mps 751 mmHg 84%
    06:00 +15°C° 0 mm 2 mps 751 mmHg 80%
    07:00 +17°C° 0 mm 2 mps 752 mmHg 77%
    08:00 +19°C° 0 mm 2 mps 752 mmHg 74%
    09:00 +20°C° 0 mm 2 mps 752 mmHg 72%
    10:00 +21°C° 0 mm 3 mps 752 mmHg 69%
    11:00 +22°C° 0 mm 3 mps 752 mmHg 67%
    12:00 +23°C° 0.1 mm 4 mps 752 mmHg 65%
    13:00 +23°C° 0.1 mm 4 mps 752 mmHg 63%
    14:00 +23°C° 0.1 mm 4 mps 752 mmHg 61%
    15:00 +23°C° 0 mm 4 mps 752 mmHg 62%
    16:00 +22°C° 0 mm 4 mps 752 mmHg 64%
    17:00 +22°C° 0 mm 3 mps 752 mmHg 65%
    18:00 +20°C° 0 mm 3 mps 752 mmHg 69%
    19:00 +18°C° 0 mm 3 mps 753 mmHg 72%
    20:00 +16°C° 0 mm 3 mps 753 mmHg 76%
    21:00 +14°C° 0 mm 3 mps 753 mmHg 75%
    22:00 +13°C° 0 mm 3 mps 753 mmHg 73%
    23:00 +12°C° 0 mm 3 mps 753 mmHg 72%

    Tomorrow, 29 May, Tuesday

    Time Temperature Precipitation Wind Pressure Humidity
    00:00 +11°C° 0 mm 3 mps 754 mmHg 73%
    01:00 +10°C° 0 mm 3 mps 754 mmHg 74%
    02:00 +10°C° 0 mm 3 mps 754 mmHg 76%
    03:00 +10°C° 0 mm 3 mps 754 mmHg 77%
    04:00 +10°C° 0 mm 3 mps 754 mmHg 79%
    05:00 +10°C° 0 mm 3 mps 754 mmHg 80%
    06:00 +12°C° 0 mm 3 mps 754 mmHg 77%
    07:00 +13°C° 0 mm 3 mps 753 mmHg 74%
    08:00 +16°C° 0 mm 3 mps 753 mmHg 71%
    09:00 +18°C° 0 mm 3 mps 753 mmHg 67%
    10:00 +19°C° 0 mm 3 mps 753 mmHg 63%
    11:00 +21°C° 0 mm 3 mps 753 mmHg 59%
    12:00 +21°C° 0 mm 2 mps 752 mmHg 59%
    13:00 +23°C° 0 mm 2 mps 752 mmHg 58%
    14:00 +24°C° 0 mm 2 mps 751 mmHg 57%
    15:00 +24°C° 0 mm 2 mps 751 mmHg 59%
    16:00 +24°C° 0 mm 2 mps 750 mmHg 61%
    17:00 +24°C° 0 mm 2 mps 750 mmHg 63%
    18:00 +21°C° 0 mm 2 mps 749 mmHg 69%
    19:00 +19°C° 0 mm 2 mps 749 mmHg 75%
    20:00 +18°C° 0 mm 2 mps 749 mmHg 81%
    21:00 +17°C° 0 mm 2 mps 748 mmHg 83%
    22:00 +16°C° 0 mm 2 mps 748 mmHg 85%
    23:00 +14°C° 0 mm 3 mps 748 mmHg 87%

    Day after tomorrow, 30 May, Wednesday

    Time Temperature Precipitation Wind Pressure Humidity
    00:00 +14°C° 0 mm 3 mps 748 mmHg 88%
    01:00 +14°C° 0 mm 3 mps 748 mmHg 89%
    02:00 +13°C° 0 mm 3 mps 747 mmHg 90%
    03:00 +14°C° 0 mm 3 mps 747 mmHg 90%
    04:00 +14°C° 0 mm 3 mps 747 mmHg 90%
    05:00 +16°C° 0 mm 3 mps 746 mmHg 89%
    06:00 +17°C° 0 mm 3 mps 746 mmHg 86%
    07:00 +19°C° 0 mm 3 mps 746 mmHg 84%
    08:00 +21°C° 0 mm 3 mps 746 mmHg 81%
    09:00 +22°C° 0.5 mm 3 mps 745 mmHg 76%
    10:00 +24°C° 0.5 mm 3 mps 745 mmHg 72%
    11:00 +25°C° 0.5 mm 4 mps 744 mmHg 67%
    12:00 +26°C° 0.3 mm 4 mps 744 mmHg 66%
    13:00 +26°C° 0.3 mm 4 mps 744 mmHg 64%
    14:00 +27°C° 0.3 mm 4 mps 743 mmHg 62%
    15:00 +26°C° 0.5 mm 4 mps 743 mmHg 66%
    16:00 +26°C° 0.5 mm 3 mps 742 mmHg 70%
    17:00 +25°C° 0.5 mm 3 mps 742 mmHg 74%
    18:00 +24°C° 0.1 mm 3 mps 741 mmHg 78%
    19:00 +21°C° 0.1 mm 3 mps 741 mmHg 82%
    20:00 +20°C° 0.1 mm 3 mps 741 mmHg 86%
    21:00 +19°C° 0 mm 3 mps 741 mmHg 87%
    22:00 +18°C° 0 mm 3 mps 740 mmHg 88%
    23:00 +17°C° 0 mm 3 mps 740 mmHg 90%

    31 May, Thursday

    Time Temperature Precipitation Wind Pressure Humidity
    00:00 +17°C° 0 mm 3 mps 740 mmHg 90%
    01:00 +17°C° 0 mm 3 mps 739 mmHg 91%
    02:00 +16°C° 0 mm 3 mps 739 mmHg 92%
    03:00 +16°C° 0.1 mm 3 mps 739 mmHg 92%
    04:00 +16°C° 0.1 mm 3 mps 739 mmHg 92%
    05:00 +14°C° 0.1 mm 3 mps 739 mmHg 92%
    06:00 +15°C° 0 mm 4 mps 739 mmHg 86%
    07:00 +16°C° 0 mm 5 mps 739 mmHg 80%
    08:00 +16°C° 0 mm 5 mps 740 mmHg 74%
    09:00 +17°C° 0 mm 6 mps 740 mmHg 68%
    10:00 +19°C° 0 mm 6 mps 740 mmHg 63%
    11:00 +19°C° 0 mm 6 mps 740 mmHg 57%
    12:00 +19°C° 0 mm 6 mps 740 mmHg 55%
    13:00 +20°C° 0 mm 5 mps 740 mmHg 54%
    14:00 +20°C° 0 mm 5 mps 740 mmHg 52%
    15:00 +19°C° 0 mm 5 mps 741 mmHg 56%
    16:00 +19°C° 0 mm 4 mps 741 mmHg 59%
    17:00 +18°C° 0 mm 4 mps 741 mmHg 63%
    18:00 +17°C° 0 mm 4 mps 741 mmHg 65%
    19:00 +15°C° 0 mm 4 mps 741 mmHg 66%
    20:00 +14°C° 0 mm 4 mps 742 mmHg 68%
    21:00 +13°C° 0 mm 5 mps 742 mmHg 68%
    22:00 +12°C° 0 mm 5 mps 742 mmHg 68%
    23:00 +10°C° 0 mm 5 mps 743 mmHg 67%

    1 June, Friday

    Time Temperature Precipitation Wind Pressure Humidity
    00:00 +10°C° 0 mm 5 mps 743 mmHg 66%
    01:00 +9°C° 0 mm 5 mps 743 mmHg 65%
    02:00 +8°C° 0 mm 5 mps 743 mmHg 64%
    03:00 +8°C° 0 mm 5 mps 744 mmHg 63%
    04:00 +7°C° 0 mm 5 mps 744 mmHg 62%
    05:00 +7°C° 0 mm 5 mps 744 mmHg 62%
    06:00 +8°C° 0 mm 6 mps 744 mmHg 60%
    07:00 +9°C° 0 mm 6 mps 745 mmHg 59%
    08:00 +10°C° 0 mm 6 mps 745 mmHg 58%
    09:00 +10°C° 0 mm 7 mps 745 mmHg 57%
    10:00 +11°C° 0 mm 7 mps 745 mmHg 55%
    11:00 +12°C° 0 mm 7 mps 746 mmHg 54%
    12:00 +14°C° 0 mm 6 mps 746 mmHg 54%
    13:00 +14°C° 0 mm 6 mps 746 mmHg 53%
    14:00 +15°C° 0 mm 6 mps 746 mmHg 53%
    15:00 +14°C° 0 mm 6 mps 746 mmHg 55%
    16:00 +14°C° 0 mm 5 mps 746 mmHg 58%
    17:00 +13°C° 0 mm 5 mps 746 mmHg 60%
    18:00 +12°C° 0 mm 5 mps 746 mmHg 62%
    19:00 +11°C° 0 mm 4 mps 746 mmHg 64%
    20:00 +10°C° 0 mm 4 mps 746 mmHg 67%
    21:00 +8°C° 0 mm 4 mps 747 mmHg 66%
    22:00 +7°C° 0 mm 4 mps 747 mmHg 65%
    23:00 +7°C° 0 mm 5 mps 747 mmHg 64%

    2 June, Saturday

    Time Temperature Precipitation Wind Pressure Humidity
    00:00 +6°C° 0 mm 5 mps 747 mmHg 64%
    01:00 +6°C° 0 mm 5 mps 747 mmHg 64%
    02:00 +5°C° 0 mm 5 mps 747 mmHg 65%
    03:00 +5°C° 0 mm 5 mps 747 mmHg 67%
    04:00 +5°C° 0 mm 5 mps 747 mmHg 69%
    05:00 +5°C° 0 mm 5 mps 747 mmHg 70%
    06:00 +7°C° 0 mm 6 mps 747 mmHg 68%
    07:00 +8°C° 0 mm 6 mps 747 mmHg 65%
    08:00 +10°C° 0 mm 7 mps 747 mmHg 62%
    09:00 +11°C° 0 mm 7 mps 747 mmHg 59%
    10:00 +12°C° 0 mm 7 mps 747 mmHg 57%
    11:00 +15°C° 0 mm 7 mps 747 mmHg 55%
    12:00 +15°C° 0 mm 7 mps 747 mmHg 55%
    13:00 +16°C° 0 mm 7 mps 746 mmHg 55%
    14:00 +16°C° 0 mm 7 mps 746 mmHg 54%
    15:00 +16°C° 0 mm 6 mps 746 mmHg 57%
    16:00 +16°C° 0 mm 5 mps 746 mmHg 59%
    17:00 +16°C° 0 mm 5 mps 745 mmHg 62%
    18:00 +15°C° 0 mm 5 mps 745 mmHg 66%
    19:00 +13°C° 0 mm 4 mps 745 mmHg 70%
    20:00 +12°C° 0 mm 4 mps 745 mmHg 73%
    21:00 +11°C° 0 mm 4 mps 745 mmHg 74%
    22:00 +11°C° 0 mm 4 mps 745 mmHg 74%
    23:00 +10°C° 0 mm 4 mps 745 mmHg 74%
    Show more